Location: Miles
(41.4492°N, 81.6087°W)
Time: 16:31:54
(UTC+00:00)

A-11 Canister half - Pass Details

Date: 13 September 2024
Orbit: 1515 x 1685 km, 47.2° (Epoch: 14 October)

Event Time Altitude Azimuth Distance (km) Brightness Sun altitude
Rises 03:32:34 0° 277° (W) 4,680 12.0 -38.5°
Reaches altitude 10° 03:35:41 10° 281° (W) 3,687 11.4 -38.8°
Maximum altitude 03:44:50 61° 1° (N) 1,685 9.2 -39.8°
Enters shadow 03:45:33 60° 21° (NNE) 1,705 9.2 -39.8°
